AAL9538 KCMH-KBOS

Flight info

Callsign AAL9538
Flight time 1h 23m
Altitude 39000
Route OWEBO HLG WIGGZ Q190 PONCT JFUND2
Aircraft A20N/M-SDE2E3FGHIRWXY/LB1

Departure

Time 2026-05-07 23:27
Airport John Glenn Columbus International Airport (KCMH)

Arrival

Time 2026-05-08 00:50
Airport Boston Logan International Airport (KBOS)
Time Latitude Longitude Altitude Speed Heading
2026-05-07 22:57 39.99655 -82.88549 821 ft 0 kts 28°
2026-05-07 23:18 39.99652 -82.88552 820 ft 3 kts 28°
2026-05-07 23:18 39.99633 -82.88568 818 ft 3 kts 47°
2026-05-07 23:18 39.99620 -82.88591 820 ft 3 kts 62°
2026-05-07 23:19 39.99611 -82.88618 815 ft 3 kts 76°
2026-05-07 23:19 39.99608 -82.88646 820 ft 3 kts 90°
2026-05-07 23:19 39.99608 -82.88654 820 ft 0 kts 94°
2026-05-07 23:24 39.99608 -82.88640 820 ft 7 kts 89°
2026-05-07 23:24 39.99595 -82.88506 817 ft 21 kts 96°
2026-05-07 23:24 39.99549 -82.88318 818 ft 23 kts 143°
2026-05-07 23:24 39.99406 -82.88295 820 ft 18 kts 149°
2026-05-07 23:25 39.99392 -82.88219 820 ft 12 kts 95°
2026-05-07 23:25 39.99380 -82.88070 819 ft 21 kts 96°
2026-05-07 23:25 39.99371 -82.87846 822 ft 28 kts 91°
2026-05-07 23:25 39.99352 -82.87563 822 ft 35 kts 94°
2026-05-07 23:26 39.99294 -82.87323 819 ft 6 kts 176°
2026-05-07 23:26 39.99208 -82.87342 819 ft 18 kts 220°
2026-05-07 23:26 39.99184 -82.87690 816 ft 72 kts 274°
2026-05-07 23:26 39.99236 -82.88599 824 ft 126 kts 274°
2026-05-07 23:27 39.99443 -82.91320 1537 ft 159 kts 288°
2026-05-07 23:27 39.99895 -82.92666 2173 ft 166 kts 302°
2026-05-07 23:27 40.00598 -82.93902 2783 ft 173 kts 310°
2026-05-07 23:28 40.01386 -82.95139 3294 ft 183 kts 307°
2026-05-07 23:28 40.02134 -82.96513 3852 ft 189 kts 302°
2026-05-07 23:28 40.02893 -82.97947 4271 ft 200 kts 317°
2026-05-07 23:28 40.04231 -82.98735 4473 ft 229 kts 352°
2026-05-07 23:29 40.05881 -82.98356 4862 ft 259 kts 24°
2026-05-07 23:29 40.07273 -82.96768 5578 ft 275 kts 54°
2026-05-07 23:29 40.07932 -82.94412 6490 ft 284 kts 83°
2026-05-07 23:29 40.07709 -82.91821 7230 ft 293 kts 108°
2026-05-07 23:30 40.07020 -82.89290 8037 ft 299 kts 108°
2026-05-07 23:30 40.06476 -82.86648 8841 ft 305 kts 99°
2026-05-07 23:30 40.06197 -82.83882 9650 ft 310 kts 92°
2026-05-07 23:30 40.06115 -82.81038 10364 ft 319 kts 88°
2026-05-07 23:31 40.06138 -82.78030 10622 ft 343 kts 86°
2026-05-07 23:31 40.06208 -82.74826 10941 ft 362 kts 85°
2026-05-07 23:31 40.06287 -82.71503 11591 ft 370 kts 85°
2026-05-07 23:31 40.06362 -82.68128 12289 ft 376 kts 86°
2026-05-07 23:32 40.06432 -82.64683 12815 ft 382 kts 86°
2026-05-07 23:32 40.06497 -82.61200 12979 ft 384 kts 86°
2026-05-07 23:32 40.06557 -82.57715 13005 ft 384 kts 86°
2026-05-07 23:32 40.06617 -82.54238 13003 ft 383 kts 86°
2026-05-07 23:33 40.06674 -82.50797 13002 ft 384 kts 86°
2026-05-07 23:33 40.06733 -82.47267 13004 ft 384 kts 86°
2026-05-07 23:33 40.06789 -82.43834 13005 ft 383 kts 86°
2026-05-07 23:33 40.06845 -82.40354 13009 ft 384 kts 86°
2026-05-07 23:34 40.06900 -82.36831 12988 ft 383 kts 86°
2026-05-07 23:34 40.06954 -82.33344 13219 ft 387 kts 86°
2026-05-07 23:34 40.07008 -82.29817 13960 ft 390 kts 86°
2026-05-07 23:34 40.07062 -82.26260 14591 ft 395 kts 86°
2026-05-07 23:35 40.07118 -82.22649 15191 ft 401 kts 86°
2026-05-07 23:35 40.07171 -82.18985 15816 ft 406 kts 87°
2026-05-07 23:35 40.07222 -82.15283 16414 ft 411 kts 87°
2026-05-07 23:35 40.07272 -82.11520 17013 ft 417 kts 87°
2026-05-07 23:36 40.07320 -82.07715 17615 ft 422 kts 87°
2026-05-07 23:36 40.07367 -82.03922 18201 ft 427 kts 87°
2026-05-07 23:36 40.07416 -82.00022 18687 ft 433 kts 87°
2026-05-07 23:36 40.07464 -81.96061 19110 ft 440 kts 88°
2026-05-07 23:37 40.07511 -81.92039 19552 ft 446 kts 88°
2026-05-07 23:37 40.07556 -81.87960 19998 ft 452 kts 88°
2026-05-07 23:37 40.07601 -81.83822 20435 ft 459 kts 88°
2026-05-07 23:37 40.07645 -81.79630 20874 ft 465 kts 88°
2026-05-07 23:38 40.07689 -81.75386 21297 ft 472 kts 88°
2026-05-07 23:38 40.07814 -81.71077 21751 ft 476 kts 82°
2026-05-07 23:38 40.08400 -81.66798 22119 ft 482 kts 75°
2026-05-07 23:38 40.09124 -81.62498 22498 ft 489 kts 75°
2026-05-07 23:39 40.09851 -81.58134 22927 ft 494 kts 75°
2026-05-07 23:39 40.10579 -81.53718 23331 ft 501 kts 75°
2026-05-07 23:39 40.11312 -81.49247 23724 ft 506 kts 75°
2026-05-07 23:39 40.12046 -81.44742 24159 ft 508 kts 75°
2026-05-07 23:40 40.12782 -81.40216 24569 ft 511 kts 75°
2026-05-07 23:40 40.13524 -81.35647 24913 ft 516 kts 75°
2026-05-07 23:40 40.14266 -81.31057 25315 ft 519 kts 75°
2026-05-07 23:40 40.15014 -81.26423 25722 ft 523 kts 76°
2026-05-07 23:41 40.15768 -81.21744 26004 ft 528 kts 76°
2026-05-07 23:41 40.16524 -81.17024 26401 ft 531 kts 76°
2026-05-07 23:41 40.17280 -81.12296 26783 ft 533 kts 76°
2026-05-07 23:41 40.18042 -81.07525 27110 ft 537 kts 76°
2026-05-07 23:42 40.18804 -81.02735 27452 ft 540 kts 76°
2026-05-07 23:42 40.19570 -80.97913 27788 ft 543 kts 76°
2026-05-07 23:42 40.20339 -80.93052 28100 ft 546 kts 76°
2026-05-07 23:42 40.21110 -80.88171 28375 ft 550 kts 76°
2026-05-07 23:43 40.21884 -80.83259 28708 ft 552 kts 76°
2026-05-07 23:43 40.22657 -80.78327 29011 ft 555 kts 76°
2026-05-07 23:43 40.23432 -80.73369 29286 ft 558 kts 76°
2026-05-07 23:43 40.24209 -80.68391 29551 ft 560 kts 76°
2026-05-07 23:44 40.24988 -80.63376 29836 ft 563 kts 76°
2026-05-07 23:44 40.26033 -80.58440 30106 ft 562 kts 65°
2026-05-07 23:44 40.27635 -80.53812 30348 ft 557 kts 54°
2026-05-07 23:44 40.29690 -80.49528 30538 ft 555 kts 49°
2026-05-07 23:45 40.31796 -80.45364 30818 ft 556 kts 49°
2026-05-07 23:45 40.33935 -80.41121 31073 ft 558 kts 49°
2026-05-07 23:45 40.36066 -80.36881 31397 ft 558 kts 49°
2026-05-07 23:45 40.38197 -80.32634 31747 ft 557 kts 49°
2026-05-07 23:46 40.40321 -80.28392 32098 ft 556 kts 49°
2026-05-07 23:46 40.42442 -80.24150 32437 ft 555 kts 49°
2026-05-07 23:46 40.44560 -80.19912 32760 ft 555 kts 49°
2026-05-07 23:46 40.46674 -80.15674 33031 ft 555 kts 49°
2026-05-07 23:47 40.48792 -80.11429 33335 ft 555 kts 49°
2026-05-07 23:47 40.50895 -80.07199 33813 ft 551 kts 49°
2026-05-07 23:47 40.52987 -80.02986 34107 ft 550 kts 49°
2026-05-07 23:47 40.55078 -79.98771 34317 ft 550 kts 49°
2026-05-07 23:48 40.57140 -79.94613 34544 ft 550 kts 49°
2026-05-07 23:48 40.59252 -79.90347 34772 ft 550 kts 49°
2026-05-07 23:48 40.60633 -79.87553 34903 ft 550 kts 49°
2026-05-07 23:48 40.62714 -79.83340 35110 ft 549 kts 50°
2026-05-07 23:49 40.64795 -79.79119 35307 ft 549 kts 50°
2026-05-07 23:49 40.66874 -79.74901 35502 ft 549 kts 50°
2026-05-07 23:49 40.69622 -79.69315 35868 ft 547 kts 50°
2026-05-07 23:49 40.71685 -79.65112 36074 ft 547 kts 50°
2026-05-07 23:50 40.73082 -79.62265 36193 ft 547 kts 50°
2026-05-07 23:50 40.75145 -79.58052 36381 ft 546 kts 50°
2026-05-07 23:50 40.77203 -79.53848 36533 ft 546 kts 50°
2026-05-07 23:50 40.79260 -79.49637 36693 ft 546 kts 51°
2026-05-07 23:51 40.81318 -79.45419 36839 ft 546 kts 51°
2026-05-07 23:51 40.83375 -79.41196 36953 ft 547 kts 51°
2026-05-07 23:51 40.85431 -79.36971 37058 ft 548 kts 51°
2026-05-07 23:51 40.87486 -79.32741 37299 ft 546 kts 51°
2026-05-07 23:52 40.89536 -79.28516 37474 ft 546 kts 51°
2026-05-07 23:52 40.91582 -79.24293 37591 ft 546 kts 51°
2026-05-07 23:52 40.93628 -79.20063 37727 ft 546 kts 51°
2026-05-07 23:52 40.95671 -79.15837 37852 ft 545 kts 51°
2026-05-07 23:53 40.97685 -79.11663 37971 ft 545 kts 51°
2026-05-07 23:53 40.99749 -79.07379 38084 ft 545 kts 51°
2026-05-07 23:53 41.03803 -78.98948 38272 ft 547 kts 52°
2026-05-07 23:54 41.05841 -78.94701 38436 ft 545 kts 52°
2026-05-07 23:54 41.07868 -78.90470 38549 ft 545 kts 52°
2026-05-07 23:54 41.11923 -78.81990 38703 ft 544 kts 52°
2026-05-07 23:55 41.15939 -78.73560 38537 ft 533 kts 52°
2026-05-07 23:55 41.17908 -78.69418 38006 ft 528 kts 52°
2026-05-07 23:55 41.19856 -78.65320 37624 ft 518 kts 51°
2026-05-07 23:56 41.21790 -78.61387 37780 ft 498 kts 50°
2026-05-07 23:56 41.23697 -78.57626 37691 ft 484 kts 49°
2026-05-07 23:56 41.25555 -78.53942 37313 ft 478 kts 50°
2026-05-07 23:56 41.27388 -78.50266 36599 ft 481 kts 51°
2026-05-07 23:57 41.29126 -78.46434 36022 ft 482 kts 54°
2026-05-07 23:57 41.30748 -78.42550 35822 ft 478 kts 56°
2026-05-07 23:57 41.32341 -78.38661 35602 ft 483 kts 54°
2026-05-07 23:57 41.34061 -78.34759 35240 ft 496 kts 51°
2026-05-07 23:58 41.35976 -78.30873 35036 ft 505 kts 50°
2026-05-07 23:58 41.37909 -78.26941 35081 ft 510 kts 51°
2026-05-07 23:58 41.39834 -78.22940 35188 ft 515 kts 51°
2026-05-07 23:58 41.41752 -78.18884 35219 ft 520 kts 52°
2026-05-07 23:59 41.45608 -78.10639 35334 ft 528 kts 52°
2026-05-07 23:59 41.49518 -78.02247 35415 ft 536 kts 52°
2026-05-08 00:00 41.53079 -77.93446 35458 ft 549 kts 60°
2026-05-08 00:00 41.56366 -77.84206 35810 ft 550 kts 60°
2026-05-08 00:01 41.58005 -77.79615 36120 ft 546 kts 60°
2026-05-08 00:01 41.59634 -77.75035 36344 ft 545 kts 60°
2026-05-08 00:01 41.61257 -77.70457 36518 ft 545 kts 60°
2026-05-08 00:01 41.62875 -77.65880 36677 ft 545 kts 61°
2026-05-08 00:02 41.64492 -77.61297 36850 ft 544 kts 61°
2026-05-08 00:02 41.66106 -77.56715 36896 ft 545 kts 61°
2026-05-08 00:02 41.69332 -77.47530 36904 ft 545 kts 61°
2026-05-08 00:03 41.72548 -77.38346 36908 ft 543 kts 61°
2026-05-08 00:03 41.75722 -77.29244 36897 ft 539 kts 62°
2026-05-08 00:04 41.78899 -77.20113 36889 ft 542 kts 62°
2026-05-08 00:04 41.82088 -77.10918 36893 ft 545 kts 62°
2026-05-08 00:05 41.85305 -77.01732 36887 ft 544 kts 61°
2026-05-08 00:05 41.88526 -76.92570 36882 ft 540 kts 62°
2026-05-08 00:06 41.91711 -76.83462 36890 ft 540 kts 62°
2026-05-08 00:06 41.94907 -76.74292 36886 ft 542 kts 62°
2026-05-08 00:07 41.98069 -76.65180 36884 ft 542 kts 62°
2026-05-08 00:07 42.01248 -76.55991 36883 ft 542 kts 62°
2026-05-08 00:08 42.04422 -76.46785 36888 ft 543 kts 62°
2026-05-08 00:08 42.07595 -76.37554 36890 ft 543 kts 62°
2026-05-08 00:09 42.10754 -76.28329 36894 ft 543 kts 62°
2026-05-08 00:09 42.13912 -76.19079 36888 ft 543 kts 62°
2026-05-08 00:10 42.17068 -76.09841 36908 ft 543 kts 62°
2026-05-08 00:10 42.20287 -76.00637 36886 ft 542 kts 62°
2026-05-08 00:11 42.23501 -75.91427 36892 ft 543 kts 62°
2026-05-08 00:11 42.26680 -75.82258 36905 ft 542 kts 62°
2026-05-08 00:12 42.29871 -75.73021 36894 ft 544 kts 63°
2026-05-08 00:12 42.33069 -75.63739 36922 ft 544 kts 63°
2026-05-08 00:13 42.36246 -75.54482 36901 ft 543 kts 63°
2026-05-08 00:13 42.39420 -75.45208 36900 ft 543 kts 63°
2026-05-08 00:14 42.42593 -75.35903 36898 ft 545 kts 63°
2026-05-08 00:14 42.45763 -75.26569 36898 ft 545 kts 64°
2026-05-08 00:15 42.48098 -75.16824 36903 ft 542 kts 75°
2026-05-08 00:15 42.50089 -75.06986 36908 ft 543 kts 75°
2026-05-08 00:16 42.52090 -74.97081 36907 ft 546 kts 75°
2026-05-08 00:16 42.54085 -74.87140 36909 ft 546 kts 75°
2026-05-08 00:17 42.56069 -74.77205 36905 ft 546 kts 75°
2026-05-08 00:17 42.58041 -74.67274 36904 ft 545 kts 75°
2026-05-08 00:18 42.59991 -74.57407 36906 ft 542 kts 75°
2026-05-08 00:18 42.61932 -74.47536 36899 ft 542 kts 75°
2026-05-08 00:19 42.63869 -74.37637 36893 ft 543 kts 75°
2026-05-08 00:19 42.65803 -74.27700 36897 ft 545 kts 75°
2026-05-08 00:20 42.67729 -74.17751 36897 ft 544 kts 75°
2026-05-08 00:20 42.69648 -74.07795 36893 ft 544 kts 75°
2026-05-08 00:21 42.71557 -73.97836 36864 ft 542 kts 76°
2026-05-08 00:21 42.72502 -73.92887 36664 ft 540 kts 76°
2026-05-08 00:21 42.73444 -73.87945 36152 ft 540 kts 76°
2026-05-08 00:22 42.74276 -73.82980 35498 ft 539 kts 82°
2026-05-08 00:22 42.74658 -73.77916 34801 ft 537 kts 91°
2026-05-08 00:22 42.74640 -73.72840 34122 ft 536 kts 94°
2026-05-08 00:22 42.74598 -73.67769 33364 ft 537 kts 94°
2026-05-08 00:23 42.74564 -73.62679 32519 ft 538 kts 94°
2026-05-08 00:23 42.74530 -73.57590 31718 ft 540 kts 94°
2026-05-08 00:23 42.74492 -73.52470 30935 ft 541 kts 94°
2026-05-08 00:23 42.74451 -73.47351 30157 ft 542 kts 95°
2026-05-08 00:24 42.74407 -73.42231 29501 ft 539 kts 95°
2026-05-08 00:24 42.74362 -73.37227 28941 ft 532 kts 95°
2026-05-08 00:24 42.74315 -73.32224 28377 ft 526 kts 95°
2026-05-08 00:24 42.74266 -73.27276 27851 ft 519 kts 95°
2026-05-08 00:25 42.74215 -73.22408 27331 ft 512 kts 95°
2026-05-08 00:25 42.74160 -73.17588 26775 ft 507 kts 95°
2026-05-08 00:25 42.74092 -73.12809 26240 ft 501 kts 97°
2026-05-08 00:25 42.73714 -73.08159 25723 ft 490 kts 105°
2026-05-08 00:26 42.73176 -73.03594 25214 ft 486 kts 104°
2026-05-08 00:26 42.72654 -72.99072 24683 ft 482 kts 104°
2026-05-08 00:26 42.72137 -72.94590 24177 ft 477 kts 104°
2026-05-08 00:26 42.71627 -72.90175 23938 ft 469 kts 105°
2026-05-08 00:27 42.71113 -72.85780 23872 ft 474 kts 105°
2026-05-08 00:27 42.70592 -72.81347 23861 ft 475 kts 105°
2026-05-08 00:27 42.70071 -72.76920 23862 ft 474 kts 105°
2026-05-08 00:27 42.69549 -72.72490 23856 ft 475 kts 105°
2026-05-08 00:28 42.69026 -72.68053 23865 ft 475 kts 105°
2026-05-08 00:28 42.68501 -72.63619 23862 ft 475 kts 105°
2026-05-08 00:28 42.67975 -72.59211 23628 ft 469 kts 105°
2026-05-08 00:28 42.67449 -72.54852 22983 ft 464 kts 105°
2026-05-08 00:29 42.66926 -72.50565 22233 ft 457 kts 105°
2026-05-08 00:29 42.66407 -72.46327 21472 ft 451 kts 105°
2026-05-08 00:29 42.65898 -72.42181 21022 ft 441 kts 105°
2026-05-08 00:29 42.65384 -72.38032 20887 ft 448 kts 105°
2026-05-08 00:30 42.64867 -72.33864 20809 ft 445 kts 105°
2026-05-08 00:30 42.64367 -72.29774 20705 ft 433 kts 105°
2026-05-08 00:30 42.63901 -72.25764 20500 ft 426 kts 104°
2026-05-08 00:30 42.63445 -72.21794 19789 ft 424 kts 104°
2026-05-08 00:31 42.62991 -72.17856 19098 ft 420 kts 104°
2026-05-08 00:31 42.62541 -72.13966 18439 ft 415 kts 104°
2026-05-08 00:31 42.62091 -72.10119 17745 ft 409 kts 104°
2026-05-08 00:31 42.61643 -72.06328 17017 ft 404 kts 104°
2026-05-08 00:32 42.61204 -72.02639 16339 ft 398 kts 103°
2026-05-08 00:32 42.60749 -71.98956 15663 ft 393 kts 103°
2026-05-08 00:32 42.60292 -71.95316 14990 ft 388 kts 103°
2026-05-08 00:32 42.59841 -71.91737 14409 ft 381 kts 102°
2026-05-08 00:33 42.59398 -71.88211 14102 ft 381 kts 102°
2026-05-08 00:33 42.58943 -71.84595 13877 ft 383 kts 102°
2026-05-08 00:33 42.58497 -71.81058 13419 ft 379 kts 102°
2026-05-08 00:33 42.57993 -71.77637 12879 ft 372 kts 104°
2026-05-08 00:34 42.57441 -71.74235 12247 ft 366 kts 104°
2026-05-08 00:34 42.56889 -71.70888 11618 ft 361 kts 103°
2026-05-08 00:34 42.56353 -71.67602 11199 ft 353 kts 103°
2026-05-08 00:34 42.55821 -71.64304 11073 ft 360 kts 103°
2026-05-08 00:35 42.55295 -71.61009 11042 ft 356 kts 102°
2026-05-08 00:35 42.54711 -71.57750 11039 ft 355 kts 107°
2026-05-08 00:35 42.54050 -71.54571 10907 ft 346 kts 107°
2026-05-08 00:35 42.53404 -71.51456 10481 ft 340 kts 106°
2026-05-08 00:36 42.52770 -71.48401 10040 ft 332 kts 106°
2026-05-08 00:36 42.52162 -71.45471 9822 ft 316 kts 106°
2026-05-08 00:36 42.51573 -71.42640 9325 ft 309 kts 105°
2026-05-08 00:36 42.50995 -71.39861 8785 ft 304 kts 105°
2026-05-08 00:37 42.50424 -71.37117 8272 ft 299 kts 105°
2026-05-08 00:37 42.49868 -71.34420 7911 ft 299 kts 104°
2026-05-08 00:37 42.49510 -71.32625 7758 ft 297 kts 104°
2026-05-08 00:38 42.48451 -71.27266 7129 ft 290 kts 104°
2026-05-08 00:38 42.47929 -71.24638 7037 ft 292 kts 104°
2026-05-08 00:38 42.47400 -71.21982 7024 ft 292 kts 104°
2026-05-08 00:38 42.46871 -71.19334 7019 ft 291 kts 104°
2026-05-08 00:39 42.46340 -71.16687 7020 ft 292 kts 104°
2026-05-08 00:39 42.45963 -71.13995 7012 ft 291 kts 95°
2026-05-08 00:39 42.45728 -71.11272 7015 ft 291 kts 95°
2026-05-08 00:39 42.45486 -71.08550 7011 ft 292 kts 95°
2026-05-08 00:40 42.45239 -71.05827 7012 ft 291 kts 95°
2026-05-08 00:40 42.44991 -71.03111 7011 ft 291 kts 96°
2026-05-08 00:40 42.44656 -71.00413 6994 ft 289 kts 99°
2026-05-08 00:40 42.44311 -70.97775 6920 ft 280 kts 96°
2026-05-08 00:41 42.44263 -70.95206 6829 ft 267 kts 81°
2026-05-08 00:41 42.44599 -70.92803 6702 ft 255 kts 75°
2026-05-08 00:41 42.44967 -70.90500 6574 ft 244 kts 75°
2026-05-08 00:41 42.45305 -70.88308 6452 ft 232 kts 75°
2026-05-08 00:42 42.45626 -70.86205 6155 ft 228 kts 75°
2026-05-08 00:42 42.45950 -70.84093 5760 ft 228 kts 75°
2026-05-08 00:42 42.46271 -70.81993 5386 ft 227 kts 75°
2026-05-08 00:42 42.46591 -70.79900 5015 ft 226 kts 75°
2026-05-08 00:43 42.46907 -70.77826 4566 ft 225 kts 75°
2026-05-08 00:43 42.47219 -70.75757 4118 ft 224 kts 75°
2026-05-08 00:43 42.47460 -70.73683 3658 ft 224 kts 90°
2026-05-08 00:43 42.46998 -70.71696 3203 ft 223 kts 127°
2026-05-08 00:44 42.45810 -70.70450 3033 ft 219 kts 163°
2026-05-08 00:44 42.44383 -70.70360 2998 ft 202 kts 201°
2026-05-08 00:44 42.43218 -70.71345 3003 ft 196 kts 225°
2026-05-08 00:44 42.42201 -70.72582 2997 ft 197 kts 226°
2026-05-08 00:45 42.41196 -70.73816 3007 ft 195 kts 226°
2026-05-08 00:45 42.40324 -70.75205 3011 ft 191 kts 245°
2026-05-08 00:45 42.39870 -70.76866 3006 ft 187 kts 257°
2026-05-08 00:45 42.39586 -70.78553 2990 ft 186 kts 259°
2026-05-08 00:46 42.39285 -70.80270 2795 ft 181 kts 259°
2026-05-08 00:46 42.39004 -70.81873 2545 ft 174 kts 259°
2026-05-08 00:46 42.38727 -70.83437 2314 ft 168 kts 259°
2026-05-08 00:46 42.38462 -70.84943 2085 ft 156 kts 259°
2026-05-08 00:47 42.38222 -70.86297 1871 ft 140 kts 260°
2026-05-08 00:47 42.38006 -70.87528 1713 ft 131 kts 260°
2026-05-08 00:47 42.37800 -70.88694 1528 ft 125 kts 260°
2026-05-08 00:47 42.37597 -70.89849 1356 ft 127 kts 259°
2026-05-08 00:48 42.37395 -70.90995 1183 ft 128 kts 260°
2026-05-08 00:48 42.37188 -70.92168 1007 ft 127 kts 258°
2026-05-08 00:48 42.36984 -70.93323 841 ft 125 kts 257°
2026-05-08 00:48 42.36782 -70.94471 691 ft 126 kts 258°
2026-05-08 00:49 42.36577 -70.95629 530 ft 128 kts 256°
2026-05-08 00:49 42.36370 -70.96800 359 ft 123 kts 258°
2026-05-08 00:49 42.36174 -70.97902 204 ft 124 kts 258°
2026-05-08 00:49 42.35979 -70.99012 42 ft 121 kts 258°
2026-05-08 00:50 42.35801 -71.00021 31 ft 86 kts 257°
2026-05-08 00:50 42.35701 -71.00584 25 ft 51 kts 257°
2026-05-08 00:50 42.35631 -71.01055 24 ft 50 kts 270°
2026-05-08 00:50 42.35721 -71.01256 25 ft 8 kts 309°
2026-05-08 00:51 42.35748 -71.01327 27 ft 8 kts 289°
2026-05-08 00:51 42.35749 -71.01330 27 ft 0 kts 289°
2026-05-08 00:51 42.35751 -71.01340 27 ft 2 kts 288°
2026-05-08 00:52 42.35761 -71.01378 29 ft 7 kts 288°
2026-05-08 00:52 42.35779 -71.01450 30 ft 9 kts 288°
2026-05-08 00:52 42.35800 -71.01530 30 ft 10 kts 291°
2026-05-08 00:52 42.35845 -71.01589 30 ft 6 kts 14°
2026-05-08 00:53 42.35886 -71.01591 30 ft 6 kts 338°
2026-05-08 00:53 42.35926 -71.01619 30 ft 7 kts 355°
2026-05-08 00:53 42.35987 -71.01600 29 ft 11 kts 18°
2026-05-08 00:53 42.36068 -71.01620 27 ft 14 kts 310°
2026-05-08 00:54 42.36086 -71.01668 30 ft 1 kts 291°
2026-05-08 00:54 42.36089 -71.01679 31 ft 0 kts 291°